Terminal Aerodrome Forecast
Issued by NWS Omaha/Valley, NE

Home | Current Version | Previous Version | Text Only | Print | Product List | Glossary Off
Versions: 1 2 3 4 5 6 7 8 9 10 11 12 13 14 15 16 17 18 19 20 21 22 23 24 25 26 27 28 29 30 31 32 33 34 35 36 37 38 39 40

000
FTUS43 KOAX 130520
TAFOFK
TAF
KOFK 130520Z 1306/1406 09007KT P6SM OVC090
     FM130900 11006KT P6SM OVC050
     FM131500 13012KT P6SM OVC025
     FM131800 17015G24KT P6SM OVC025=

USA.gov is the U.S. government's official web portal to all federal, state and local government web resources and services.